Terug naar catalogus

STARLINK-2112

ActiefCommunicatieVLEO
NORAD 47391·PAYLOAD·🇺🇸 United States

Gelanceerd Jan 20, 2021 vanaf Cape Canaveral Space Force Station

Loading…

Volgende Passages (komende 24 uur)

TLE

VersSource: CelesTrak SupGP

Epoch: Sep 15, 2026, 00:54 UTC

1 47391C 21005AU  26258.03798611  .00006210  00000+0  32362-3 0  2585
2 47391  53.0657 254.9883 0002162  60.6652  13.7233 15.15468657    15

Volg STARLINK-2112 in realtime met AllMySat

Download on the App Store